Abejones, Mexico

12:54 PM CST on November 21, 2018 (GMT -0600)
Playa Saladita, Guerrero, Mexico | | Change Station

Elev 43 ft 17.85 °N, 101.77 °W | Updated 1 minute ago

Clear
Clear
87.3 °F
Feels Like 99 °F
N
3.4
Wind Variable Wind from WSW
Gusts 4.5 mph

Today
High -- | Low -- °F
--% Chance of Precip.
Yesterday
High -- | Low -- °F
Precip. -- in
Pressure 29.96 in
Visibility 7.0 miles
Clouds Clear
Heat Index 99 °F
Dew Point 77 °F
Humidity 71%
Rainfall 0.00 in
Snow Depth Not available.
6:55 AM 6:08 PM
Waxing Gibbous, 97% visible
METAR MMZH 211745Z 22006KT 7SM SKC 32/24 A2998 RMK SLP143 57007 913 HZY SC
Pressure 29.96 in
Visibility 7.0 miles
Clouds Clear
Heat Index 99 °F
Dew Point 77 °F
Humidity 71%
Rainfall 0.00 in
Snow Depth Not available.
6:55 AM 6:08 PM
Waxing Gibbous, 97% visible
METAR MMZH 211745Z 22006KT 7SM SKC 32/24 A2998 RMK SLP143 57007 913 HZY SC

Get Severe Weather Alerts

Thanks for signing up!

Be on the lookout for a verification email in your inbox.

You'll start receiving the daily forecast at 6 AM.

×

10-Day Weather Forecast

No radar image for this location.
×

Almanac

Astronomy

Nov. 21, 2018 Rise Set
Actual Time
Civil Twilight
Nautical Twilight
Astronomical Twilight
Moon
Length of Visible Light
Length of Day
Tomorrow will be .
, % of the Moon is Illuminated

Today's Extremes

Country Highs Country Lows

Community

WunderPhotos

Category 6

Welcome to Category 6. This is the collective home for Weather Underground's featured writeups by Dr. Jeff Masters (right), Bob Henson (left), Chris Burt, and other regular contributors.

Nearby

Air Quality

  Air Quality AQ Index Pollutant
Not available.

Snow Depth

Station Depth Elevation

Earthquake Activity

City Distance Mag. Time & Date
Minimum magnitude displayed is 2.5.

Coastal Water Temperatures

Place Temperature

Stations

Nearby Weather Stations

Station Location Temp. Windchill Dew Point Humidity Wind Precip. Elev Updated Type